| time (UTC) | temp C | wind direction | speed KPH | gust KPH | rain 1hr cm | rain 24hr cm | rain mn cm | humidity % | barometer mb |
| 20260510190936 | 9 | 292 | 19.3 | 32.2 | 0.00 | 0.00 | 0.00 | 48 | 1013.2 |
| 20260510190433 | 9 | 286 | 14.5 | 38.6 | 0.00 | 0.00 | 0.00 | 47 | 1013.0 |
| 20260510185929 | 10 | 253 | 27.4 | 29.0 | 0.00 | 0.00 | 0.00 | 46 | 1013.2 |
| 20260510185427 | 10 | 302 | 16.1 | 29.0 | 0.00 | 0.00 | 0.00 | 47 | 1013.0 |
| 20260510184924 | 10 | 293 | 20.9 | 41.8 | 0.00 | 0.00 | 0.00 | 47 | 1013.1 |
| 20260510184421 | 10 | 286 | 12.9 | 33.8 | 0.00 | 0.00 | 0.00 | 47 | 1013.1 |
| 20260510183920 | 10 | 282 | 27.4 | 37.0 | 0.00 | 0.00 | 0.00 | 45 | 1013.0 |
| 20260510183418 | 10 | 259 | 24.1 | 32.2 | 0.00 | 0.00 | 0.00 | 46 | 1013.0 |
| 20260510182913 | 10 | 261 | 29.0 | 41.8 | 0.00 | 0.00 | 0.00 | 44 | 1013.0 |
| 20260510182409 | 9 | 264 | 17.7 | 37.0 | 0.00 | 0.00 | 0.00 | 46 | 1012.7 |
| 20260510181905 | 10 | 274 | 17.7 | 38.6 | 0.00 | 0.00 | 0.00 | 44 | 1012.9 |
| 20260510181403 | 10 | 250 | 25.7 | 51.5 | 0.00 | 0.00 | 0.00 | 44 | 1012.8 |
| 20260510180859 | 10 | 291 | 24.1 | 49.9 | 0.00 | 0.00 | 0.00 | 44 | 1012.9 |
| 20260510180356 | 9 | 279 | 32.2 | 35.4 | 0.00 | 0.00 | 0.00 | 43 | 1012.8 |
| 20260510175853 | 9 | 292 | 24.1 | 41.8 | 0.00 | 0.00 | 0.00 | 44 | 1012.8 |
| 20260510175348 | 9 | 303 | 22.5 | 37.0 | 0.00 | 0.00 | 0.00 | 45 | 1012.8 |
| 20260510174845 | 10 | 284 | 9.7 | 30.6 | 0.00 | 0.00 | 0.00 | 46 | 1012.7 |
| 20260510174343 | 9 | 245 | 27.4 | 48.3 | 0.00 | 0.00 | 0.00 | 48 | 1012.7 |
| 20260510173839 | 9 | 287 | 19.3 | 33.8 | 0.00 | 0.00 | 0.00 | 50 | 1012.6 |
| 20260510173335 | 9 | 298 | 16.1 | 27.4 | 0.00 | 0.00 | 0.00 | 51 | 1012.4 |
| 20260510172831 | 10 | 283 | 16.1 | 43.5 | 0.00 | 0.00 | 0.00 | 51 | 1012.6 |
| 20260510172327 | 9 | 279 | 29.0 | 41.8 | 0.00 | 0.00 | 0.00 | 49 | 1012.4 |
| 20260510171823 | 8 | 305 | 12.9 | 35.4 | 0.00 | 0.00 | 0.00 | 55 | 1012.3 |
| 20260510171321 | 8 | 280 | 16.1 | 40.2 | 0.00 | 0.00 | 0.00 | 53 | 1012.4 |
| 20260510170818 | 8 | 314 | 29.0 | 35.4 | 0.00 | 0.00 | 0.00 | 54 | 1012.6 |
| 20260510170314 | 8 | 279 | 17.7 | 38.6 | 0.00 | 0.00 | 0.00 | 55 | 1012.2 |
| 20260510165809 | 8 | 295 | 19.3 | 35.4 | 0.00 | 0.00 | 0.00 | 59 | 1012.5 |
| 20260510165307 | 8 | 298 | 24.1 | 37.0 | 0.00 | 0.00 | 0.00 | 59 | 1012.4 |
| 20260510164803 | 7 | 310 | 14.5 | 40.2 | 0.00 | 0.00 | 0.00 | 58 | 1012.4 |
| 20260510164301 | 7 | 310 | 14.5 | 49.9 | 0.00 | 0.00 | 0.00 | 59 | 1012.3 |
| 20260510163800 | 8 | 274 | 19.3 | 38.6 | 0.00 | 0.00 | 0.00 | 58 | 1012.5 |
| 20260510163257 | 8 | 276 | 20.9 | 41.8 | 0.00 | 0.00 | 0.00 | 59 | 1012.3 |
| 20260510162756 | 7 | 289 | 14.5 | 37.0 | 0.00 | 0.00 | 0.00 | 61 | 1012.4 |
| 20260510162254 | 7 | 303 | 33.8 | 41.8 | 0.00 | 0.00 | 0.00 | 62 | 1012.5 |
| 20260510161749 | 7 | 307 | 19.3 | 35.4 | 0.00 | 0.00 | 0.00 | 64 | 1012.2 |
| 20260510161245 | 8 | 303 | 19.3 | 35.4 | 0.00 | 0.00 | 0.00 | 61 | 1012.3 |
| 20260510160743 | 8 | 310 | 24.1 | 37.0 | 0.00 | 0.00 | 0.00 | 61 | 1012.3 |
| 20260510160239 | 7 | 281 | 11.3 | 32.2 | 0.00 | 0.00 | 0.00 | 67 | 1012.2 |
| 20260510155734 | 7 | 277 | 30.6 | 38.6 | 0.00 | 0.00 | 0.00 | 67 | 1012.2 |
| 20260510155230 | 7 | 260 | 24.1 | 27.4 | 0.00 | 0.00 | 0.00 | 66 | 1011.8 |
| 20260510154727 | 7 | 311 | 16.1 | 35.4 | 0.00 | 0.00 | 0.00 | 66 | 1011.9 |
| 20260510154222 | 7 | 286 | 14.5 | 27.4 | 0.00 | 0.00 | 0.00 | 66 | 1011.8 |
| 20260510153718 | 7 | 259 | 25.7 | 40.2 | 0.00 | 0.00 | 0.00 | 66 | 1012.0 |
| 20260510153214 | 7 | 260 | 35.4 | 49.9 | 0.00 | 0.00 | 0.00 | 68 | 1012.1 |
| 20260510152711 | 7 | 269 | 38.6 | 40.2 | 0.00 | 0.00 | 0.00 | 67 | 1012.0 |
| 20260510152206 | 7 | 265 | 33.8 | 35.4 | 0.00 | 0.00 | 0.00 | 69 | 1011.6 |
| 20260510151704 | 6 | 257 | 17.7 | 38.6 | 0.00 | 0.00 | 0.00 | 70 | 1011.6 |
| 20260510151203 | 7 | 266 | 41.8 | 43.5 | 0.00 | 0.00 | 0.00 | 68 | 1011.6 |
| 20260510150657 | 7 | 267 | 37.0 | 41.8 | 0.00 | 0.00 | 0.00 | 68 | 1011.6 |
| 20260510150153 | 7 | 313 | 11.3 | 35.4 | 0.00 | 0.00 | 0.00 | 69 | 1011.4 |
| 20260510145649 | 7 | 268 | 17.7 | 38.6 | 0.00 | 0.00 | 0.00 | 70 | 1011.4 |
| 20260510145146 | 7 | 300 | 20.9 | 49.9 | 0.00 | 0.00 | 0.00 | 68 | 1011.3 |
| 20260510144642 | 7 | 326 | 17.7 | 37.0 | 0.00 | 0.00 | 0.00 | 69 | 1011.2 |
| 20260510144139 | 7 | 264 | 32.2 | 35.4 | 0.00 | 0.00 | 0.00 | 71 | 1010.8 |
| 20260510143633 | 7 | 292 | 14.5 | 45.1 | 0.00 | 0.00 | 0.00 | 72 | 1011.2 |
| 20260510143130 | 6 | 296 | 25.7 | 41.8 | 0.00 | 0.00 | 0.00 | 72 | 1011.4 |
| 20260510142627 | 6 | 282 | 22.5 | 38.6 | 0.00 | 0.00 | 0.00 | 74 | 1011.1 |
| 20260510142124 | 7 | 288 | 22.5 | 33.8 | 0.00 | 0.00 | 0.00 | 73 | 1010.6 |
| 20260510141620 | 7 | 277 | 25.7 | 38.6 | 0.00 | 0.00 | 0.00 | 72 | 1010.8 |
| 20260510141119 | 6 | 287 | 20.9 | 35.4 | 0.00 | 0.00 | 0.00 | 73 | 1010.8 |
| 20260510140615 | 6 | 274 | 19.3 | 41.8 | 0.00 | 0.00 | 0.00 | 73 | 1010.8 |
| 20260510140109 | 6 | 332 | 16.1 | 33.8 | 0.00 | 0.00 | 0.00 | 74 | 1010.8 |
| 20260510135604 | 6 | 273 | 20.9 | 35.4 | 0.00 | 0.00 | 0.00 | 73 | 1010.5 |
| 20260510135101 | 6 | 309 | 17.7 | 30.6 | 0.00 | 0.00 | 0.00 | 75 | 1010.3 |
| 20260510134558 | 6 | 261 | 16.1 | 27.4 | 0.00 | 0.00 | 0.00 | 75 | 1010.4 |
| 20260510134055 | 6 | 247 | 27.4 | 29.0 | 0.00 | 0.00 | 0.00 | 74 | 1010.5 |
| 20260510133551 | 6 | 254 | 19.3 | 37.0 | 0.00 | 0.00 | 0.00 | 75 | 1010.4 |
| 20260510133046 | 6 | 279 | 20.9 | 30.6 | 0.00 | 0.00 | 0.00 | 76 | 1010.2 |
| 20260510132543 | 6 | 244 | 16.1 | 29.0 | 0.00 | 0.00 | 0.00 | 77 | 1010.2 |
| 20260510132040 | 5 | 255 | 11.3 | 30.6 | 0.00 | 0.00 | 0.00 | 79 | 1010.3 |
| 20260510131538 | 6 | 285 | 9.7 | 24.1 | 0.00 | 0.00 | 0.00 | 78 | 1010.1 |
| 20260510131035 | 5 | 291 | 11.3 | 32.2 | 0.00 | 0.00 | 0.00 | 78 | 1010.4 |
| 20260510130531 | 5 | 258 | 24.1 | 35.4 | 0.00 | 0.00 | 0.00 | 77 | 1009.9 |
| 20260510130029 | 5 | 255 | 11.3 | 20.9 | 0.00 | 0.00 | 0.00 | 77 | 1010.0 |
| 20260510125525 | 5 | 276 | 16.1 | 25.7 | 0.00 | 0.00 | 0.00 | 78 | 1010.1 |
| 20260510125022 | 5 | 274 | 19.3 | 35.4 | 0.00 | 0.00 | 0.00 | 78 | 1009.8 |
| 20260510124518 | 5 | 309 | 14.5 | 19.3 | 0.00 | 0.00 | 0.00 | 78 | 1009.8 |
| 20260510124015 | 5 | 267 | 14.5 | 22.5 | 0.00 | 0.00 | 0.00 | 78 | 1009.8 |
| 20260510123510 | 5 | 284 | 22.5 | 30.6 | 0.00 | 0.00 | 0.00 | 78 | 1009.7 |
| 20260510123006 | 5 | 273 | 12.9 | 24.1 | 0.00 | 0.00 | 0.00 | 78 | 1009.5 |
| 20260510122502 | 5 | 264 | 14.5 | 32.2 | 0.00 | 0.00 | 0.00 | 78 | 1009.6 |
| 20260510121959 | 5 | 229 | 11.3 | 27.4 | 0.00 | 0.00 | 0.00 | 79 | 1009.6 |
| 20260510121455 | 5 | 285 | 9.7 | 24.1 | 0.00 | 0.00 | 0.00 | 79 | 1009.7 |
| 20260510120953 | 4 | 256 | 12.9 | 33.8 | 0.00 | 0.00 | 0.00 | 79 | 1009.3 |
| 20260510120450 | 4 | 254 | 17.7 | 27.4 | 0.00 | 0.00 | 0.00 | 79 | 1009.2 |
| 20260510115946 | 4 | 269 | 24.1 | 35.4 | 0.00 | 0.00 | 0.00 | 78 | 1009.3 |
| 20260510115443 | 4 | 254 | 20.9 | 32.2 | 0.00 | 0.00 | 0.00 | 78 | 1009.4 |
| 20260510114939 | 4 | 267 | 16.1 | 33.8 | 0.00 | 0.00 | 0.00 | 79 | 1009.3 |
| 20260510114436 | 4 | 293 | 14.5 | 40.2 | 0.00 | 0.00 | 0.00 | 79 | 1009.2 |
| 20260510113932 | 4 | 273 | 14.5 | 24.1 | 0.00 | 0.00 | 0.00 | 79 | 1009.4 |
| 20260510113427 | 4 | 254 | 14.5 | 35.4 | 0.00 | 0.00 | 0.00 | 79 | 1009.2 |
| 20260510112925 | 4 | 265 | 20.9 | 40.2 | 0.00 | 0.00 | 0.00 | 79 | 1008.9 |
| 20260510112422 | 4 | 268 | 9.7 | 20.9 | 0.00 | 0.00 | 0.00 | 79 | 1008.6 |
| 20260510111918 | 4 | 302 | 14.5 | 20.9 | 0.00 | 0.00 | 0.00 | 79 | 1008.9 |
| 20260510111414 | 3 | 248 | 9.7 | 19.3 | 0.00 | 0.00 | 0.00 | 79 | 1008.6 |
| 20260510110910 | 3 | 267 | 11.3 | 27.4 | 0.00 | 0.00 | 0.00 | 80 | 1008.5 |
| 20260510110406 | 3 | 256 | 20.9 | 22.5 | 0.00 | 0.00 | 0.00 | 80 | 1008.5 |
| 20260510105903 | 3 | 249 | 16.1 | 19.3 | 0.00 | 0.00 | 0.00 | 80 | 1008.3 |
| 20260510105403 | 3 | 283 | 14.5 | 19.3 | 0.00 | 0.00 | 0.00 | 81 | 1008.2 |
| 20260510104859 | 2 | 259 | 9.7 | 14.5 | 0.00 | 0.00 | 0.00 | 83 | 1008.3 |
| 20260510104356 | 2 | 289 | 11.3 | 20.9 | 0.00 | 0.00 | 0.00 | 83 | 1008.2 |
| 20260510103852 | 2 | 273 | 14.5 | 14.5 | 0.00 | 0.00 | 0.00 | 83 | 1007.8 |
| 20260510103350 | 2 | 246 | 8.0 | 20.9 | 0.00 | 0.00 | 0.00 | 83 | 1008.0 |
| 20260510102845 | 2 | 248 | 8.0 | 16.1 | 0.00 | 0.00 | 0.00 | 83 | 1007.7 |
| 20260510102341 | 2 | 254 | 14.5 | 24.1 | 0.00 | 0.00 | 0.00 | 83 | 1007.4 |
| 20260510101838 | 2 | 256 | 9.7 | 16.1 | 0.00 | 0.00 | 0.00 | 85 | 1007.5 |
| 20260510101337 | 2 | 251 | 9.7 | 16.1 | 0.00 | 0.00 | 0.00 | 85 | 1007.3 |
| 20260510100832 | 2 | 252 | 8.0 | 19.3 | 0.00 | 0.00 | 0.00 | 85 | 1007.4 |
| 20260510100330 | 2 | 261 | 14.5 | 17.7 | 0.00 | 0.00 | 0.00 | 85 | 1007.1 |
| 20260510095826 | 2 | 266 | 8.0 | 24.1 | 0.00 | 0.00 | 0.00 | 84 | 1007.0 |
| 20260510095321 | 2 | 253 | 11.3 | 22.5 | 0.00 | 0.00 | 0.00 | 84 | 1006.9 |
| 20260510094820 | 2 | 273 | 17.7 | 20.9 | 0.00 | 0.00 | 0.00 | 85 | 1006.7 |
| 20260510094316 | 2 | 262 | 17.7 | 20.9 | 0.00 | 0.00 | 0.00 | 84 | 1006.6 |
| 20260510093813 | 2 | 269 | 11.3 | 16.1 | 0.00 | 0.00 | 0.00 | 84 | 1006.5 |
| 20260510093309 | 2 | 258 | 12.9 | 20.9 | 0.00 | 0.00 | 0.00 | 84 | 1006.6 |
| 20260510092805 | 3 | 276 | 6.4 | 17.7 | 0.00 | 0.00 | 0.00 | 84 | 1006.5 |
| 20260510092301 | 3 | 271 | 9.7 | 17.7 | 0.00 | 0.00 | 0.00 | 83 | 1006.6 |
| 20260510091756 | 3 | 265 | 11.3 | 16.1 | 0.00 | 0.00 | 0.00 | 83 | 1006.5 |
| 20260510091254 | 3 | 300 | 8.0 | 16.1 | 0.00 | 0.00 | 0.00 | 83 | 1006.6 |
| 20260510090750 | 3 | 288 | 17.7 | 22.5 | 0.00 | 0.00 | 0.00 | 83 | 1006.4 |
| 20260510090248 | 3 | 271 | 12.9 | 24.1 | 0.00 | 0.00 | 0.00 | 83 | 1006.6 |
| 20260510085743 | 3 | 267 | 17.7 | 20.9 | 0.00 | 0.00 | 0.00 | 83 | 1006.5 |
| 20260510085237 | 3 | 278 | 9.7 | 22.5 | 0.00 | 0.00 | 0.00 | 83 | 1006.4 |
| 20260510084734 | 3 | 288 | 20.9 | 27.4 | 0.00 | 0.00 | 0.00 | 82 | 1006.4 |
| 20260510084231 | 3 | 273 | 11.3 | 25.7 | 0.00 | 0.00 | 0.00 | 82 | 1006.3 |
| 20260510083727 | 3 | 266 | 8.0 | 16.1 | 0.00 | 0.00 | 0.00 | 82 | 1006.2 |
| 20260510083225 | 3 | 263 | 14.5 | 20.9 | 0.00 | 0.00 | 0.00 | 82 | 1006.3 |
| 20260510082720 | 3 | 288 | 14.5 | 14.5 | 0.00 | 0.00 | 0.00 | 82 | 1006.1 |
| 20260510082217 | 3 | 274 | 11.3 | 22.5 | 0.00 | 0.00 | 0.00 | 80 | 1006.4 |
| 20260510081716 | 3 | 260 | 8.0 | 19.3 | 0.00 | 0.00 | 0.00 | 81 | 1006.2 |
| 20260510081212 | 3 | 292 | 14.5 | 20.9 | 0.00 | 0.00 | 0.00 | 80 | 1006.3 |
| 20260510080707 | 4 | 259 | 17.7 | 20.9 | 0.00 | 0.00 | 0.00 | 80 | 1006.1 |
| 20260510080203 | 4 | 266 | 12.9 | 29.0 | 0.00 | 0.00 | 0.00 | 79 | 1006.2 |
| 20260510075700 | 4 | 299 | 17.7 | 25.7 | 0.00 | 0.00 | 0.00 | 78 | 1006.0 |
| 20260510075158 | 4 | 268 | 8.0 | 17.7 | 0.00 | 0.00 | 0.00 | 78 | 1006.0 |
| 20260510074655 | 5 | 273 | 17.7 | 20.9 | 0.00 | 0.00 | 0.00 | 78 | 1005.9 |
| 20260510074150 | 5 | 247 | 11.3 | 17.7 | 0.00 | 0.00 | 0.00 | 77 | 1006.1 |
| 20260510073647 | 5 | 268 | 12.9 | 17.7 | 0.00 | 0.00 | 0.00 | 78 | 1005.7 |
| 20260510073143 | 5 | 273 | 9.7 | 17.7 | 0.00 | 0.00 | 0.00 | 77 | 1005.8 |
| 20260510072639 | 5 | 255 | 11.3 | 20.9 | 0.00 | 0.00 | 0.00 | 77 | 1005.8 |
| 20260510072136 | 5 | 284 | 11.3 | 22.5 | 0.00 | 0.00 | 0.00 | 76 | 1005.9 |
| 20260510071632 | 5 | 266 | 12.9 | 22.5 | 0.00 | 0.00 | 0.00 | 76 | 1005.6 |
| 20260510071130 | 5 | 294 | 11.3 | 16.1 | 0.00 | 0.00 | 0.00 | 76 | 1005.6 |
| 20260510070627 | 5 | 301 | 14.5 | 19.3 | 0.00 | 0.00 | 0.00 | 75 | 1005.6 |
| 20260510070125 | 6 | 268 | 12.9 | 25.7 | 0.00 | 0.00 | 0.00 | 73 | 1005.7 |
| 20260510065620 | 6 | 252 | 16.1 | 24.1 | 0.00 | 0.00 | 0.00 | 72 | 1005.9 |
| 20260510065116 | 6 | 265 | 12.9 | 30.6 | 0.00 | 0.00 | 0.00 | 72 | 1005.4 |
| 20260510064612 | 6 | 287 | 16.1 | 29.0 | 0.00 | 0.00 | 0.00 | 72 | 1005.5 |
| 20260510064109 | 6 | 273 | 20.9 | 29.0 | 0.00 | 0.00 | 0.00 | 72 | 1005.3 |
| 20260510063601 | 6 | 272 | 17.7 | 25.7 | 0.00 | 0.00 | 0.00 | 72 | 1005.2 |
| 20260510063058 | 6 | 269 | 9.7 | 29.0 | 0.00 | 0.00 | 0.00 | 73 | 1005.1 |
| 20260510062553 | 6 | 267 | 14.5 | 19.3 | 0.00 | 0.00 | 0.00 | 74 | 1004.9 |
| 20260510062049 | 6 | 236 | 8.0 | 22.5 | 0.00 | 0.00 | 0.00 | 75 | 1004.8 |
| 20260510061545 | 6 | 240 | 8.0 | 14.5 | 0.00 | 0.00 | 0.00 | 76 | 1004.9 |
| 20260510061042 | 6 | 212 | 14.5 | 19.3 | 0.00 | 0.00 | 0.00 | 75 | 1004.9 |
| 20260510060538 | 6 | 252 | 6.4 | 17.7 | 0.00 | 0.00 | 0.00 | 76 | 1005.0 |
| 20260510060035 | 7 | 248 | 12.9 | 19.3 | 0.00 | 0.00 | 0.00 | 75 | 1004.9 |
| 20260510055531 | 7 | 228 | 8.0 | 20.9 | 0.00 | 0.00 | 0.00 | 74 | 1004.7 |
| 20260510055030 | 7 | 248 | 11.3 | 20.9 | 0.00 | 0.00 | 0.00 | 76 | 1004.6 |
| 20260510054525 | 7 | 234 | 11.3 | 20.9 | 0.00 | 0.00 | 0.00 | 76 | 1004.7 |
| 20260510054020 | 7 | 244 | 8.0 | 11.3 | 0.00 | 0.00 | 0.00 | 78 | 1004.8 |
| 20260510053515 | 7 | 259 | 12.9 | 16.1 | 0.00 | 0.00 | 0.00 | 78 | 1004.7 |
| 20260510053012 | 6 | 248 | 14.5 | 22.5 | 0.00 | 0.00 | 0.00 | 78 | 1004.7 |
| 20260510052508 | 6 | 258 | 9.7 | 14.5 | 0.00 | 0.00 | 0.00 | 80 | 1004.5 |
| 20260510052004 | 7 | 244 | 8.0 | 24.1 | 0.00 | 0.00 | 0.00 | 79 | 1004.7 |
| 20260510051500 | 7 | 280 | 14.5 | 20.9 | 0.00 | 0.00 | 0.00 | 79 | 1004.5 |
| 20260510050957 | 7 | 251 | 19.3 | 24.1 | 0.00 | 0.00 | 0.00 | 79 | 1004.5 |
| 20260510050454 | 7 | 254 | 16.1 | 20.9 | 0.00 | 0.00 | 0.00 | 80 | 1004.2 |
| 20260510045951 | 7 | 256 | 17.7 | 24.1 | 0.00 | 0.00 | 0.00 | 80 | 1004.5 |
| 20260510045448 | 7 | 275 | 17.7 | 24.1 | 0.00 | 0.00 | 0.00 | 80 | 1004.1 |
| 20260510044944 | 7 | 284 | 12.9 | 20.9 | 0.00 | 0.00 | 0.00 | 81 | 1004.3 |
| 20260510044441 | 7 | 263 | 14.5 | 17.7 | 0.00 | 0.00 | 0.00 | 81 | 1004.1 |
| 20260510043938 | 7 | 299 | 16.1 | 17.7 | 0.00 | 0.00 | 0.00 | 80 | 1003.9 |
| 20260510043434 | 7 | 280 | 8.0 | 20.9 | 0.00 | 0.00 | 0.00 | 80 | 1003.8 |
| 20260510042932 | 7 | 285 | 11.3 | 17.7 | 0.00 | 0.00 | 0.00 | 80 | 1004.0 |
| 20260510042428 | 7 | 291 | 8.0 | 19.3 | 0.00 | 0.00 | 0.00 | 80 | 1003.8 |
| 20260510041924 | 7 | 260 | 11.3 | 17.7 | 0.00 | 0.00 | 0.00 | 80 | 1003.8 |
| 20260510041421 | 7 | 255 | 11.3 | 14.5 | 0.00 | 0.00 | 0.00 | 80 | 1003.7 |
| 20260510040919 | 7 | 256 | 11.3 | 19.3 | 0.00 | 0.00 | 0.00 | 80 | 1003.7 |
| 20260510040415 | 7 | 263 | 4.8 | 16.1 | 0.00 | 0.00 | 0.00 | 80 | 1003.6 |
| 20260510035905 | 7 | 247 | 6.4 | 14.5 | 0.00 | 0.10 | 0.10 | 80 | 1003.6 |
| 20260510035402 | 8 | 263 | 9.7 | 16.1 | 0.00 | 0.10 | 0.10 | 80 | 1003.5 |
| 20260510034857 | 8 | 287 | 9.7 | 20.9 | 0.00 | 0.10 | 0.10 | 79 | 1003.3 |
| 20260510034356 | 8 | 280 | 16.1 | 27.4 | 0.00 | 0.10 | 0.10 | 79 | 1003.6 |
| 20260510033851 | 8 | 249 | 14.5 | 17.7 | 0.00 | 0.10 | 0.10 | 79 | 1003.6 |
| 20260510033348 | 8 | 265 | 12.9 | 24.1 | 0.00 | 0.10 | 0.10 | 82 | 1003.4 |
| 20260510032844 | 8 | 271 | 9.7 | 24.1 | 0.00 | 0.10 | 0.10 | 80 | 1003.6 |
| 20260510032341 | 8 | 277 | 9.7 | 25.7 | 0.00 | 0.10 | 0.10 | 82 | 1003.5 |
| 20260510031837 | 8 | 261 | 20.9 | 22.5 | 0.00 | 0.10 | 0.10 | 83 | 1003.6 |
| 20260510031333 | 8 | 255 | 14.5 | 24.1 | 0.00 | 0.10 | 0.10 | 83 | 1003.7 |
| 20260510030832 | 8 | 252 | 20.9 | 20.9 | 0.00 | 0.10 | 0.10 | 85 | 1003.4 |
| 20260510030329 | 9 | 265 | 8.0 | 27.4 | 0.00 | 0.10 | 0.10 | 86 | 1003.6 |
| 20260510025826 | 9 | 254 | 17.7 | 25.7 | 0.00 | 0.10 | 0.10 | 90 | 1003.5 |
| 20260510025324 | 9 | 251 | 14.5 | 24.1 | 0.00 | 0.10 | 0.10 | 92 | 1003.4 |
| 20260510024820 | 9 | 246 | 11.3 | 20.9 | 0.00 | 0.10 | 0.10 | 92 | 1003.3 |
| 20260510024318 | 10 | 259 | 12.9 | 22.5 | 0.00 | 0.10 | 0.10 | 92 | 1003.3 |
| 20260510023814 | 10 | 262 | 22.5 | 25.7 | 0.00 | 0.10 | 0.10 | 91 | 1003.3 |
| 20260510023310 | 10 | 263 | 16.1 | 17.7 | 0.00 | 0.10 | 0.10 | 92 | 1002.9 |
| 20260510022807 | 10 | 292 | 9.7 | 24.1 | 0.00 | 0.10 | 0.10 | 91 | 1002.8 |
| 20260510022307 | 10 | 264 | 20.9 | 32.2 | 0.00 | 0.10 | 0.10 | 91 | 1002.7 |
| 20260510021806 | 10 | 260 | 12.9 | 22.5 | 0.00 | 0.10 | 0.10 | 92 | 1002.8 |
| 20260510021304 | 10 | 266 | 14.5 | 20.9 | 0.00 | 0.10 | 0.10 | 92 | 1002.8 |
| 20260510020800 | 10 | 258 | 17.7 | 27.4 | 0.00 | 0.10 | 0.10 | 91 | 1002.4 |
| 20260510020300 | 10 | 249 | 24.1 | 24.1 | 0.00 | 0.10 | 0.10 | 91 | 1002.7 |
| 20260510015756 | 10 | 254 | 19.3 | 24.1 | 0.00 | 0.10 | 0.10 | 91 | 1002.6 |
| 20260510015252 | 10 | 228 | 14.5 | 22.5 | 0.00 | 0.10 | 0.10 | 92 | 1002.6 |
| 20260510014747 | 10 | 235 | 12.9 | 27.4 | 0.00 | 0.10 | 0.10 | 91 | 1002.2 |
| 20260510014245 | 10 | 234 | 14.5 | 22.5 | 0.00 | 0.10 | 0.10 | 92 | 1002.1 |
| 20260510013741 | 10 | 216 | 6.4 | 22.5 | 0.00 | 0.10 | 0.10 | 92 | 1002.1 |
| 20260510013236 | 10 | 223 | 17.7 | 24.1 | 0.00 | 0.10 | 0.10 | 92 | 1001.9 |
| 20260510012731 | 10 | 204 | 4.8 | 24.1 | 0.00 | 0.10 | 0.10 | 92 | 1001.9 |
| 20260510012226 | 10 | 206 | 8.0 | 22.5 | 0.00 | 0.10 | 0.10 | 92 | 1001.8 |
| 20260510011727 | 10 | 195 | 8.0 | 17.7 | 0.00 | 0.10 | 0.10 | 92 | 1001.7 |
| 20260510011222 | 10 | 239 | 12.9 | 20.9 | 0.00 | 0.10 | 0.10 | 93 | 1001.7 |
| 20260510010719 | 10 | 214 | 8.0 | 14.5 | 0.00 | 0.10 | 0.10 | 93 | 1001.7 |
| 20260510010210 | 10 | 229 | 11.3 | 20.9 | 0.00 | 0.10 | 0.10 | 93 | 1001.5 |
| 20260510005707 | 10 | 213 | 8.0 | 14.5 | 0.00 | 0.10 | 0.10 | 93 | 1001.5 |
| 20260510005203 | 10 | 217 | 16.1 | 19.3 | 0.00 | 0.10 | 0.10 | 93 | 1001.1 |
| 20260510004702 | 10 | 207 | 8.0 | 19.3 | 0.00 | 0.10 | 0.10 | 93 | 1001.3 |
| 20260510004159 | 10 | 199 | 8.0 | 17.7 | 0.00 | 0.10 | 0.10 | 93 | 1001.1 |
| 20260510003656 | 10 | 214 | 11.3 | 20.9 | 0.00 | 0.10 | 0.10 | 93 | 1001.0 |
| 20260510003151 | 10 | 236 | 6.4 | 22.5 | 0.00 | 0.10 | 0.10 | 93 | 1001.0 |
| 20260510002646 | 10 | 226 | 11.3 | 19.3 | 0.00 | 0.10 | 0.10 | 93 | 1000.7 |
| 20260510002143 | 10 | 218 | 9.7 | 16.1 | 0.00 | 0.10 | 0.10 | 93 | 1000.8 |
| 20260510001640 | 10 | 232 | 8.0 | 27.4 | 0.00 | 0.10 | 0.10 | 93 | 1000.6 |
| 20260510001139 | 10 | 246 | 8.0 | 29.0 | 0.00 | 0.10 | 0.10 | 93 | 1000.6 |
| 20260510000639 | 10 | 152 | 6.4 | 20.9 | 0.00 | 0.10 | 0.10 | 93 | 1000.6 |
| 20260510000137 | 10 | 246 | 9.7 | 14.5 | 0.00 | 0.10 | 0.10 | 93 | 1000.5 |
| 20260509235633 | 10 | 232 | 8.0 | 20.9 | 0.00 | 0.10 | 0.10 | 92 | 1000.4 |
| 20260509235130 | 10 | 229 | 12.9 | 20.9 | 0.00 | 0.10 | 0.10 | 93 | 1000.4 |
| 20260509234625 | 10 | 217 | 9.7 | 22.5 | 0.00 | 0.10 | 0.10 | 92 | 1000.5 |
| 20260509234123 | 11 | 252 | 9.7 | 20.9 | 0.00 | 0.10 | 0.10 | 92 | 1000.3 |
| 20260509233620 | 11 | 220 | 22.5 | 33.8 | 0.00 | 0.10 | 0.10 | 91 | 1000.2 |
| 20260509233118 | 11 | 208 | 11.3 | 24.1 | 0.00 | 0.10 | 0.10 | 91 | 1000.1 |
| 20260509232614 | 10 | 164 | 9.7 | 14.5 | 0.00 | 0.10 | 0.10 | 92 | 999.7 |
| 20260509232111 | 11 | 199 | 11.3 | 27.4 | 0.00 | 0.10 | 0.10 | 92 | 999.7 |
| 20260509231608 | 11 | 225 | 24.1 | 25.7 | 0.00 | 0.10 | 0.10 | 92 | 1000.0 |
| 20260509231105 | 11 | 226 | 12.9 | 24.1 | 0.00 | 0.10 | 0.10 | 92 | 1000.0 |
| 20260509230602 | 10 | 202 | 4.8 | 20.9 | 0.00 | 0.10 | 0.10 | 93 | 1000.0 |
| 20260509230059 | 10 | 186 | 6.4 | 8.0 | 0.05 | 0.10 | 0.10 | 93 | 1000.0 |
| 20260509225555 | 10 | 171 | 3.2 | 6.4 | 0.18 | 0.10 | 0.10 | 94 | 1000.2 |
| 20260509225050 | 10 | 196 | 6.4 | 11.3 | 0.43 | 0.08 | 0.08 | 94 | 1000.4 |
| 20260509224546 | 10 | 194 | 9.7 | 11.3 | 0.23 | 0.05 | 0.05 | 94 | 1000.2 |
| 20260509224043 | 11 | 199 | 8.0 | 17.7 | 0.05 | 0.00 | 0.00 | 87 | 1000.2 |
| 20260509223540 | 11 | 199 | 11.3 | 14.5 | 0.00 | 0.00 | 0.00 | 84 | 999.9 |
| 20260509223038 | 11 | 165 | 4.8 | 11.3 | 0.00 | 0.00 | 0.00 | 83 | 1000.0 |
| 20260509222533 | 11 | 188 | 3.2 | 14.5 | 0.00 | 0.00 | 0.00 | 82 | 1000.0 |
| 20260509222035 | 11 | 158 | 6.4 | 11.3 | 0.00 | 0.00 | 0.00 | 82 | 1000.3 |
| 20260509221525 | 11 | 171 | 3.2 | 8.0 | 0.00 | 0.00 | 0.00 | 81 | 1000.2 |
| 20260509221022 | 11 | 191 | 4.8 | 9.7 | 0.00 | 0.00 | 0.00 | 82 | 1000.2 |
| 20260509220518 | 11 | 175 | 12.9 | 17.7 | 0.00 | 0.00 | 0.00 | 82 | 1000.1 |
| 20260509220014 | 11 | 150 | 9.7 | 11.3 | 0.00 | 0.00 | 0.00 | 82 | 1000.4 |
| 20260509215509 | 11 | 131 | 8.0 | 9.7 | 0.00 | 0.00 | 0.00 | 82 | 1000.4 |
| 20260509215007 | 11 | 145 | 8.0 | 16.1 | 0.00 | 0.00 | 0.00 | 82 | 1000.3 |
| 20260509214504 | 11 | 142 | 11.3 | 16.1 | 0.00 | 0.00 | 0.00 | 82 | 1000.4 |
| 20260509214001 | 11 | 145 | 6.4 | 11.3 | 0.00 | 0.00 | 0.00 | 82 | 1000.3 |
| 20260509213457 | 11 | 192 | 4.8 | 11.3 | 0.00 | 0.00 | 0.00 | 82 | 1000.3 |
| 20260509212954 | 11 | 188 | 4.8 | 17.7 | 0.00 | 0.00 | 0.00 | 82 | 1000.4 |
| 20260509212451 | 11 | 143 | 4.8 | 14.5 | 0.00 | 0.00 | 0.00 | 82 | 1000.2 |
| 20260509211947 | 12 | 137 | 11.3 | 12.9 | 0.00 | 0.00 | 0.00 | 81 | 1000.4 |
| 20260509211443 | 12 | 189 | 4.8 | 9.7 | 0.00 | 0.00 | 0.00 | 81 | 1000.3 |
| 20260509210940 | 12 | 182 | 4.8 | 12.9 | 0.00 | 0.00 | 0.00 | 81 | 1000.3 |
| 20260509210437 | 12 | 176 | 6.4 | 11.3 | 0.00 | 0.00 | 0.00 | 80 | 1000.3 |
| 20260509205932 | 12 | 187 | 4.8 | 11.3 | 0.00 | 0.00 | 0.00 | 80 | 1000.4 |
| 20260509205427 | 12 | 146 | 4.8 | 8.0 | 0.00 | 0.00 | 0.00 | 80 | 1000.8 |
| 20260509204923 | 12 | 211 | 8.0 | 16.1 | 0.00 | 0.00 | 0.00 | 80 | 1000.8 |
| 20260509204420 | 12 | 181 | 12.9 | 19.3 | 0.00 | 0.00 | 0.00 | 79 | 1000.5 |
| 20260509203917 | 12 | 186 | 12.9 | 30.6 | 0.00 | 0.00 | 0.00 | 79 | 1000.5 |
| 20260509203412 | 12 | 156 | 8.0 | 17.7 | 0.00 | 0.00 | 0.00 | 78 | 1000.6 |
| 20260509202910 | 13 | 186 | 8.0 | 14.5 | 0.00 | 0.00 | 0.00 | 77 | 1000.5 |
| 20260509202406 | 13 | 195 | 4.8 | 12.9 | 0.00 | 0.00 | 0.00 | 77 | 1000.4 |
| 20260509201901 | 13 | 175 | 6.4 | 19.3 | 0.00 | 0.00 | 0.00 | 77 | 1000.4 |
| 20260509201356 | 13 | 202 | 11.3 | 19.3 | 0.00 | 0.00 | 0.00 | 76 | 1000.3 |
| 20260509200854 | 13 | 200 | 20.9 | 30.6 | 0.00 | 0.00 | 0.00 | 76 | 1000.6 |
| 20260509200354 | 13 | 192 | 9.7 | 22.5 | 0.00 | 0.00 | 0.00 | 75 | 1000.5 |
| 20260509195851 | 13 | 160 | 6.4 | 29.0 | 0.00 | 0.00 | 0.00 | 74 | 1000.5 |
| 20260509195345 | 13 | 185 | 8.0 | 20.9 | 0.00 | 0.00 | 0.00 | 73 | 1000.9 |
| 20260509194845 | 14 | 194 | 4.8 | 14.5 | 0.00 | 0.00 | 0.00 | 73 | 1000.8 |
| 20260509194342 | 14 | 174 | 4.8 | 19.3 | 0.00 | 0.00 | 0.00 | 72 | 1000.7 |
| 20260509193838 | 14 | 205 | 14.5 | 32.2 | 0.00 | 0.00 | 0.00 | 71 | 1000.8 |
| 20260509193338 | 15 | 187 | 9.7 | 24.1 | 0.00 | 0.00 | 0.00 | 70 | 1000.8 |
| 20260509192835 | 15 | 184 | 9.7 | 17.7 | 0.00 | 0.00 | 0.00 | 69 | 1000.7 |
| 20260509192331 | 16 | 198 | 3.2 | 16.1 | 0.00 | 0.00 | 0.00 | 66 | 1000.7 |
| 20260509191826 | 15 | 181 | 17.7 | 20.9 | 0.00 | 0.00 | 0.00 | 69 | 1000.7 |
| 20260509191322 | 14 | 201 | 11.3 | 25.7 | 0.00 | 0.00 | 0.00 | 71 | 1001.0 |